Time,TemperatureF,DewpointF,PressureIn,WindDirection,WindDirectionDegrees,WindSpeedMPH,WindSpeedGustMPH,Humidity,HourlyPrecipIn,Conditions,Clouds,dailyrainin,SoftwareType,DateUTC
2013-06-19 00:02:00,49.2,46.7,29.76,West,273,3.5,3.5,91,0.00,OVC,,0.00,WeatherDisplay:10.37,2013-06-19 07:02:00,
2013-06-19 00:07:00,49.2,47.0,29.76,West,273,2.3,2.3,92,0.01,OVC,,0.01,WeatherDisplay:10.37,2013-06-19 07:07:00,
2013-06-19 00:12:00,49.1,46.9,29.75,NNE,15,3.5,3.5,92,0.02,RA,,0.02,WeatherDisplay:10.37,2013-06-19 07:12:00,
2013-06-19 00:17:00,49.0,46.8,29.75,NNE,30,3.5,3.6,92,0.04,RA,,0.04,WeatherDisplay:10.37,2013-06-19 07:17:00,
2013-06-19 00:22:00,49.0,46.8,29.76,East,86,3.5,3.5,92,0.05,RA,,0.06,WeatherDisplay:10.37,2013-06-19 07:22:00,
2013-06-19 00:27:00,48.8,46.6,29.76,East,86,0.0,0.0,92,0.07,RA,,0.07,WeatherDisplay:10.37,2013-06-19 07:27:00,
2013-06-19 00:32:00,48.8,46.9,29.76,East,86,2.3,2.3,93,0.08,RA,,0.08,WeatherDisplay:10.37,2013-06-19 07:32:00,
2013-06-19 00:38:00,48.8,46.9,29.76,East,86,0.0,0.0,93,0.09,RA,,0.09,WeatherDisplay:10.37,2013-06-19 07:38:00,
2013-06-19 00:43:00,48.8,46.9,29.75,East,86,0.0,0.0,93,0.10,RA,,0.10,WeatherDisplay:10.37,2013-06-19 07:43:00,
2013-06-19 00:48:00,48.8,46.9,29.75,East,86,0.0,0.0,93,0.11,RA,,0.11,WeatherDisplay:10.37,2013-06-19 07:48:00,
2013-06-19 00:53:00,48.7,46.8,29.76,East,86,4.0,4.0,93,0.12,RA,,0.12,WeatherDisplay:10.37,2013-06-19 07:53:00,
2013-06-19 00:58:00,48.7,46.8,29.76,East,86,1.2,1.2,93,0.11,RA,,0.12,WeatherDisplay:10.37,2013-06-19 07:58:00,
2013-06-19 01:03:00,48.7,46.8,29.75,East,86,2.3,0.0,93,0.13,-RA,,0.13,WeatherDisplay:10.37,2013-06-19 08:03:00,
2013-06-19 01:08:00,48.6,46.7,29.75,East,86,2.3,2.3,93,0.11,-RA,,0.13,WeatherDisplay:10.37,2013-06-19 08:08:00,
2013-06-19 01:13:00,48.5,46.6,29.75,East,86,0.0,0.0,93,0.11,-RA,,0.13,WeatherDisplay:10.37,2013-06-19 08:13:00,
2013-06-19 01:18:00,48.5,46.9,29.75,East,86,0.0,0.0,94,0.09,-RA,,0.13,WeatherDisplay:10.37,2013-06-19 08:18:00,
2013-06-19 01:23:00,48.5,46.9,29.75,East,86,0.0,0.0,94,0.08,-RA,,0.14,WeatherDisplay:10.37,2013-06-19 08:23:00,
2013-06-19 01:28:00,48.5,46.9,29.75,East,86,3.5,3.5,94,0.07,-RA,,0.14,WeatherDisplay:10.37,2013-06-19 08:28:00,
2013-06-19 01:33:00,48.5,46.9,29.75,East,86,1.2,0.0,94,0.06,-RA,,0.14,WeatherDisplay:10.37,2013-06-19 08:33:00,
2013-06-19 01:38:00,48.5,46.9,29.74,East,86,0.0,0.0,94,0.06,-RA,,0.16,WeatherDisplay:10.37,2013-06-19 08:38:00,
2013-06-19 01:43:00,48.5,46.9,29.74,East,86,0.0,0.0,94,0.06,-RA,,0.16,WeatherDisplay:10.37,2013-06-19 08:43:00,
2013-06-19 01:48:00,48.5,46.9,29.74,East,86,0.0,0.0,94,0.05,-RA,,0.16,WeatherDisplay:10.37,2013-06-19 08:48:00,
2013-06-19 01:53:00,48.5,46.9,29.73,East,86,1.2,1.2,94,0.04,-RA,,0.16,WeatherDisplay:10.37,2013-06-19 08:53:00,
2013-06-19 01:58:00,48.5,46.9,29.74,East,86,0.0,0.0,94,0.04,-RA,,0.16,WeatherDisplay:10.37,2013-06-19 08:58:00,
2013-06-19 02:03:00,48.5,46.9,29.74,East,86,1.2,1.2,94,0.04,-RA,,0.17,WeatherDisplay:10.37,2013-06-19 09:03:00,
2013-06-19 02:08:00,48.4,46.8,29.74,East,86,0.0,0.0,94,0.04,-RA,,0.17,WeatherDisplay:10.37,2013-06-19 09:08:00,
2013-06-19 02:13:00,48.3,46.7,29.74,East,86,0.0,0.0,94,0.04,-RA,,0.18,WeatherDisplay:10.37,2013-06-19 09:13:00,
2013-06-19 02:18:00,48.2,46.6,29.74,WNW,295,4.6,0.0,94,0.05,-RA,,0.18,WeatherDisplay:10.37,2013-06-19 09:18:00,
2013-06-19 02:23:00,48.1,46.5,29.73,WNW,295,0.0,0.0,94,0.04,-RA,,0.18,WeatherDisplay:10.37,2013-06-19 09:23:00,
2013-06-19 02:28:00,48.1,46.5,29.73,WNW,295,0.0,0.0,94,0.05,-RA,,0.19,WeatherDisplay:10.37,2013-06-19 09:28:00,
2013-06-19 02:33:00,48.1,46.5,29.72,WNW,295,3.5,3.5,94,0.06,-RA,,0.20,WeatherDisplay:10.37,2013-06-19 09:33:00,
2013-06-19 02:38:00,48.0,46.4,29.73,WNW,295,0.0,0.0,94,0.04,-RA,,0.20,WeatherDisplay:10.37,2013-06-19 09:38:00,
2013-06-19 02:43:00,48.0,46.4,29.73,WNW,295,0.0,0.0,94,0.04,-RA,,0.20,WeatherDisplay:10.37,2013-06-19 09:43:00,
2013-06-19 02:48:00,47.9,46.3,29.74,WNW,295,0.0,0.1,94,0.05,-RA,,0.21,WeatherDisplay:10.37,2013-06-19 09:48:00,
2013-06-19 02:53:00,47.9,46.3,29.74,NW,308,3.5,3.5,94,0.06,-RA,,0.22,WeatherDisplay:10.37,2013-06-19 09:53:00,
2013-06-19 02:58:00,47.8,46.2,29.73,NW,308,3.5,3.5,94,0.07,-RA,,0.23,WeatherDisplay:10.37,2013-06-19 09:58:00,
2013-06-19 03:03:00,47.7,46.1,29.75,NW,321,3.5,3.5,94,0.06,-RA,,0.24,WeatherDisplay:10.37,2013-06-19 10:03:00,
2013-06-19 03:08:00,47.6,46.0,29.76,NNW,330,4.0,4.0,94,0.07,-RA,,0.24,WeatherDisplay:10.37,2013-06-19 10:08:00,
2013-06-19 03:13:00,47.6,46.0,29.76,NNW,328,4.0,4.0,94,0.08,-RA,,0.25,WeatherDisplay:10.37,2013-06-19 10:13:00,
2013-06-19 03:18:00,47.5,45.9,29.77,NNW,327,1.2,1.2,94,0.08,-RA,,0.26,WeatherDisplay:10.37,2013-06-19 10:18:00,
2013-06-19 03:23:00,47.4,46.0,29.76,NNW,328,0.0,0.0,95,0.08,-RA,,0.26,WeatherDisplay:10.37,2013-06-19 10:23:00,
2013-06-19 03:28:00,47.4,46.0,29.76,NNW,328,1.2,1.2,95,0.08,-RA,,0.28,WeatherDisplay:10.37,2013-06-19 10:28:00,
2013-06-19 03:33:00,47.4,46.0,29.77,NNW,328,1.2,0.0,95,0.08,-RA,,0.29,WeatherDisplay:10.37,2013-06-19 10:33:00,
2013-06-19 03:38:00,47.4,46.0,29.77,NNW,328,0.0,0.5,95,0.10,-RA,,0.30,WeatherDisplay:10.37,2013-06-19 10:38:00,
2013-06-19 03:43:00,47.4,46.0,29.78,NNW,328,2.3,0.0,95,0.11,-RA,,0.31,WeatherDisplay:10.37,2013-06-19 10:43:00,
2013-06-19 03:48:00,47.4,46.0,29.76,NNW,327,2.3,2.3,95,0.11,-RA,,0.32,WeatherDisplay:10.37,2013-06-19 10:48:00,
2013-06-19 03:54:00,47.4,46.0,29.76,NNW,328,1.2,1.2,95,0.10,-RA,,0.32,WeatherDisplay:10.37,2013-06-19 10:54:00,
2013-06-19 03:59:00,47.5,46.1,29.75,NNW,327,2.3,2.3,95,0.10,-RA,,0.33,WeatherDisplay:10.37,2013-06-19 10:59:00,
2013-06-19 04:04:00,47.5,46.1,29.76,NNW,328,4.0,4.0,95,0.11,RA,,0.34,WeatherDisplay:10.37,2013-06-19 11:04:00,
2013-06-19 04:09:00,47.5,46.1,29.76,NNW,327,3.5,0.0,95,0.10,RA,,0.34,WeatherDisplay:10.37,2013-06-19 11:09:00,
2013-06-19 04:14:00,47.5,46.1,29.77,NNW,327,0.0,0.0,95,0.10,RA,,0.35,WeatherDisplay:10.37,2013-06-19 11:14:00,
2013-06-19 04:19:00,47.4,46.0,29.78,NNW,328,2.3,2.3,95,0.10,RA,,0.36,WeatherDisplay:10.37,2013-06-19 11:19:00,
2013-06-19 04:24:00,47.4,46.0,29.76,NNW,328,0.0,0.0,95,0.10,RA,,0.37,WeatherDisplay:10.37,2013-06-19 11:24:00,
2013-06-19 04:29:00,47.4,46.0,29.76,NNW,327,1.2,1.2,95,0.11,RA,,0.38,WeatherDisplay:10.37,2013-06-19 11:29:00,
2013-06-19 04:34:00,47.4,46.0,29.75,NNW,340,3.5,3.5,95,0.10,RA,,0.39,WeatherDisplay:10.37,2013-06-19 11:34:00,
2013-06-19 04:39:00,47.4,46.0,29.75,NNW,340,1.2,0.0,95,0.10,RA,,0.40,WeatherDisplay:10.37,2013-06-19 11:39:00,
2013-06-19 04:44:00,47.3,45.9,29.76,NNW,340,2.3,2.3,95,0.10,RA,,0.41,WeatherDisplay:10.37,2013-06-19 11:44:00,
2013-06-19 04:49:00,47.1,45.7,29.76,NNW,340,0.0,0.0,95,0.10,RA,,0.42,WeatherDisplay:10.37,2013-06-19 11:49:00,
2013-06-19 04:54:00,46.9,45.5,29.76,NNW,340,0.0,0.0,95,0.10,RA,,0.42,WeatherDisplay:10.37,2013-06-19 11:54:00,
2013-06-19 04:59:00,46.9,45.5,29.77,NNW,340,0.0,0.0,95,0.10,RA,,0.43,WeatherDisplay:10.37,2013-06-19 11:59:00,
2013-06-19 05:04:00,46.8,45.4,29.77,NNW,340,2.3,2.3,95,0.10,-RA,,0.44,WeatherDisplay:10.37,2013-06-19 12:04:00,
2013-06-19 05:09:00,46.8,45.4,29.77,NNW,340,3.5,3.5,95,0.11,-RA,,0.45,WeatherDisplay:10.37,2013-06-19 12:09:00,
2013-06-19 05:14:00,46.8,45.4,29.76,ENE,69,6.0,6.0,95,0.11,-RA,,0.46,WeatherDisplay:10.37,2013-06-19 12:14:00,
2013-06-19 05:19:00,46.7,45.3,29.75,ENE,72,7.0,7.0,95,0.10,-RA,,0.46,WeatherDisplay:10.37,2013-06-19 12:19:00,
2013-06-19 05:24:00,46.7,45.3,29.75,ENE,77,8.1,8.1,95,0.10,-RA,,0.47,WeatherDisplay:10.37,2013-06-19 12:24:00,
2013-06-19 05:29:00,46.7,45.3,29.75,East,82,8.1,8.1,95,0.10,-RA,,0.48,WeatherDisplay:10.37,2013-06-19 12:29:00,
2013-06-19 05:34:00,46.7,45.3,29.75,East,80,9.2,9.2,95,0.10,-RA,,0.49,WeatherDisplay:10.37,2013-06-19 12:34:00,
2013-06-19 05:39:00,46.7,45.3,29.75,ENE,77,9.2,9.2,95,0.10,-RA,,0.50,WeatherDisplay:10.37,2013-06-19 12:39:00,
2013-06-19 05:44:00,46.6,45.2,29.75,East,79,6.9,6.9,95,0.10,-RA,,0.51,WeatherDisplay:10.37,2013-06-19 12:44:00,
2013-06-19 05:49:00,46.6,45.2,29.74,ENE,75,5.8,5.8,95,0.10,-RA,,0.52,WeatherDisplay:10.37,2013-06-19 12:49:00,
2013-06-19 05:54:00,46.6,45.2,29.75,ENE,78,4.6,4.6,95,0.11,-RA,,0.53,WeatherDisplay:10.37,2013-06-19 12:54:00,
2013-06-19 06:00:00,46.6,45.2,29.75,ENE,78,4.0,4.2,95,0.11,-RA,,0.54,WeatherDisplay:10.37,2013-06-19 13:00:00,
2013-06-19 06:05:00,46.6,45.2,29.74,ENE,78,2.3,2.3,95,0.11,-RA,,0.55,WeatherDisplay:10.37,2013-06-19 13:05:00,
2013-06-19 06:10:00,46.6,45.2,29.74,ENE,78,2.3,0.0,95,0.11,-RA,,0.56,WeatherDisplay:10.37,2013-06-19 13:10:00,
2013-06-19 06:15:00,46.5,45.1,29.75,ENE,78,0.0,0.0,95,0.11,-RA,,0.57,WeatherDisplay:10.37,2013-06-19 13:15:00,
2013-06-19 06:20:00,46.5,45.1,29.74,ENE,78,0.0,0.2,95,0.12,-RA,,0.58,WeatherDisplay:10.37,2013-06-19 13:20:00,
2013-06-19 06:25:00,46.5,45.1,29.76,ENE,78,1.2,1.2,95,0.11,-RA,,0.59,WeatherDisplay:10.37,2013-06-19 13:25:00,
2013-06-19 06:30:00,46.6,45.5,29.76,ENE,78,3.5,3.5,96,0.11,-RA,,0.60,WeatherDisplay:10.37,2013-06-19 13:30:00,
2013-06-19 06:35:00,46.7,45.6,29.77,ESE,117,3.5,3.5,96,0.11,-RA,,0.60,WeatherDisplay:10.37,2013-06-19 13:35:00,
2013-06-19 06:40:00,46.7,45.6,29.76,ESE,117,0.0,0.0,96,0.11,-RA,,0.61,WeatherDisplay:10.37,2013-06-19 13:40:00,
2013-06-19 06:45:00,46.6,45.5,29.76,ESE,117,0.0,0.0,96,0.11,-RA,,0.62,WeatherDisplay:10.37,2013-06-19 13:45:00,
2013-06-19 06:50:00,46.5,45.4,29.75,ESE,117,0.0,0.0,96,0.10,-RA,,0.62,WeatherDisplay:10.37,2013-06-19 13:50:00,
2013-06-19 06:55:00,46.5,45.4,29.75,ESE,117,0.0,0.0,96,0.10,-RA,,0.63,WeatherDisplay:10.37,2013-06-19 13:55:00,
2013-06-19 07:00:00,46.6,45.5,29.75,East,90,1.2,0.0,96,0.10,-RA,,0.64,WeatherDisplay:10.37,2013-06-19 14:00:00,
2013-06-19 07:05:00,46.7,45.6,29.76,East,90,0.0,0.0,96,0.10,-RA,,0.65,WeatherDisplay:10.37,2013-06-19 14:05:00,
2013-06-19 07:10:00,46.8,45.7,29.76,East,90,0.0,0.0,96,0.09,-RA,,0.65,WeatherDisplay:10.37,2013-06-19 14:10:00,
2013-06-19 07:15:00,46.9,45.8,29.76,East,90,2.3,2.3,96,0.09,-RA,,0.66,WeatherDisplay:10.37,2013-06-19 14:15:00,
2013-06-19 07:20:00,46.9,45.8,29.76,East,90,2.3,2.3,96,0.09,-RA,,0.67,WeatherDisplay:10.37,2013-06-19 14:20:00,
2013-06-19 07:25:00,46.9,45.8,29.76,East,90,3.5,3.5,96,0.08,-RA,,0.68,WeatherDisplay:10.37,2013-06-19 14:25:00,
2013-06-19 07:30:00,46.9,45.8,29.76,East,90,1.2,1.2,96,0.08,-RA,,0.68,WeatherDisplay:10.37,2013-06-19 14:30:00,
2013-06-19 07:35:00,46.9,45.8,29.76,ENE,72,0.0,0.0,96,0.09,-RA,,0.69,WeatherDisplay:10.37,2013-06-19 14:35:00,
2013-06-19 07:40:00,47.0,45.9,29.75,ENE,73,0.0,0.0,96,0.08,-RA,,0.69,WeatherDisplay:10.37,2013-06-19 14:40:00,
2013-06-19 07:45:00,47.3,46.2,29.76,ENE,73,0.0,0.0,96,0.08,-RA,,0.70,WeatherDisplay:10.37,2013-06-19 14:45:00,
2013-06-19 07:50:00,47.5,46.4,29.76,ENE,73,0.0,0.0,96,0.08,-RA,,0.70,WeatherDisplay:10.37,2013-06-19 14:50:00,
2013-06-19 07:55:00,47.6,46.5,29.75,ENE,73,1.0,1.0,96,0.07,-RA,,0.70,WeatherDisplay:10.37,2013-06-19 14:55:00,
2013-06-19 08:00:00,47.8,46.7,29.75,NE,51,0.0,0.3,96,0.06,-RA,,0.70,WeatherDisplay:10.37,2013-06-19 15:00:00,
2013-06-19 08:06:00,47.8,46.7,29.74,NE,51,3.5,3.5,96,0.05,-RA,,0.70,WeatherDisplay:10.37,2013-06-19 15:06:00,
2013-06-19 08:11:00,47.7,46.6,29.75,NE,36,1.2,0.0,96,0.06,-RA,,0.71,WeatherDisplay:10.37,2013-06-19 15:11:00,
2013-06-19 08:16:00,47.7,46.6,29.76,NE,36,2.0,2.0,96,0.05,-RA,,0.71,WeatherDisplay:10.37,2013-06-19 15:16:00,
2013-06-19 08:21:00,47.2,46.1,29.77,WNW,286,6.0,6.0,96,0.04,-RA,,0.71,WeatherDisplay:10.37,2013-06-19 15:21:00,
2013-06-19 08:26:00,47.0,45.6,29.77,WNW,284,5.0,5.0,95,0.05,-RA,,0.72,WeatherDisplay:10.37,2013-06-19 15:26:00,
2013-06-19 08:31:00,47.0,45.9,29.77,WNW,284,3.5,3.5,96,0.04,-RA,,0.72,WeatherDisplay:10.37,2013-06-19 15:31:00,
2013-06-19 08:36:00,47.2,46.1,29.76,WNW,284,0.0,0.0,96,0.04,-RA,,0.73,WeatherDisplay:10.37,2013-06-19 15:36:00,
2013-06-19 08:41:00,47.4,46.3,29.76,WNW,286,3.5,3.5,96,0.04,-RA,,0.73,WeatherDisplay:10.37,2013-06-19 15:41:00,
2013-06-19 08:46:00,47.3,46.2,29.76,WNW,286,3.5,3.5,96,0.03,-RA,,0.73,WeatherDisplay:10.37,2013-06-19 15:46:00,
2013-06-19 08:51:00,47.3,46.2,29.75,WNW,295,3.5,3.5,96,0.03,-RA,,0.73,WeatherDisplay:10.37,2013-06-19 15:51:00,
2013-06-19 08:56:00,47.4,46.3,29.76,WNW,295,1.2,0.0,96,0.03,-RA,,0.73,WeatherDisplay:10.37,2013-06-19 15:56:00,
2013-06-19 09:01:00,47.7,46.6,29.75,WNW,295,3.5,3.5,96,0.03,OVC,,0.73,WeatherDisplay:10.37,2013-06-19 16:01:00,
2013-06-19 09:06:00,47.8,46.7,29.75,WNW,295,2.3,2.3,96,0.03,OVC,,0.73,WeatherDisplay:10.37,2013-06-19 16:06:00,
2013-06-19 09:11:00,47.8,46.7,29.75,WNW,296,3.5,3.5,96,0.02,OVC,,0.73,WeatherDisplay:10.37,2013-06-19 16:11:00,
2013-06-19 09:16:00,47.9,46.8,29.75,WNW,296,1.2,1.2,96,0.02,OVC,,0.73,WeatherDisplay:10.37,2013-06-19 16:16:00,
2013-06-19 09:21:00,48.0,46.9,29.75,WNW,295,3.5,3.5,96,0.02,OVC,,0.73,WeatherDisplay:10.37,2013-06-19 16:21:00,
2013-06-19 09:26:00,48.1,47.0,29.76,WNW,296,2.3,2.3,96,0.01,OVC,,0.73,WeatherDisplay:10.37,2013-06-19 16:26:00,
2013-06-19 09:31:00,48.1,47.0,29.76,WNW,295,3.5,3.5,96,0.01,OVC,,0.73,WeatherDisplay:10.37,2013-06-19 16:31:00,
2013-06-19 09:36:00,48.1,47.0,29.76,WNW,296,3.5,3.5,96,0.00,OVC,,0.73,WeatherDisplay:10.37,2013-06-19 16:36:00,
2013-06-19 09:41:00,48.3,47.2,29.75,NW,315,4.6,4.6,96,0.00,OVC,,0.73,WeatherDisplay:10.37,2013-06-19 16:41:00,
2013-06-19 09:46:00,48.6,47.5,29.76,NW,314,3.0,3.0,96,0.00,OVC,,0.73,WeatherDisplay:10.37,2013-06-19 16:46:00,
2013-06-19 09:51:00,48.5,47.4,29.76,NW,314,0.0,0.0,96,0.00,OVC,,0.73,WeatherDisplay:10.37,2013-06-19 16:51:00,
2013-06-19 09:56:00,48.5,47.4,29.76,NW,315,3.0,3.0,96,0.01,RA,,0.74,WeatherDisplay:10.37,2013-06-19 16:56:00,
2013-06-19 10:01:00,48.3,47.2,29.77,NW,316,1.2,0.0,96,0.01,RA,,0.74,WeatherDisplay:10.37,2013-06-19 17:01:00,
2013-06-19 10:06:00,48.2,47.1,29.76,NNW,333,4.6,4.6,96,0.01,OVC,,0.74,WeatherDisplay:10.37,2013-06-19 17:06:00,
2013-06-19 10:11:00,48.1,47.0,29.77,NNW,333,5.8,5.8,96,0.01,OVC,,0.74,WeatherDisplay:10.37,2013-06-19 17:11:00,
2013-06-19 10:16:00,48.2,47.1,29.76,NNW,337,3.5,3.5,96,0.01,OVC,,0.74,WeatherDisplay:10.37,2013-06-19 17:16:00,
2013-06-19 10:21:00,48.3,47.2,29.76,NNW,331,6.9,6.9,96,0.02,RA,,0.75,WeatherDisplay:10.37,2013-06-19 17:21:00,
2013-06-19 10:26:00,48.2,47.1,29.76,NW,323,4.6,4.6,96,0.02,RA,,0.75,WeatherDisplay:10.37,2013-06-19 17:26:00,
2013-06-19 10:31:00,48.2,47.1,29.76,NW,322,9.2,9.2,96,0.02,OVC,,0.75,WeatherDisplay:10.37,2013-06-19 17:31:00,
2013-06-19 10:36:00,48.3,47.2,29.77,NW,308,5.8,5.8,96,0.02,OVC,,0.75,WeatherDisplay:10.37,2013-06-19 17:36:00,
2013-06-19 10:41:00,48.4,47.3,29.77,NW,315,4.6,4.6,96,0.03,RA,,0.76,WeatherDisplay:10.37,2013-06-19 17:41:00,
2013-06-19 10:46:00,48.7,47.6,29.75,NW,325,4.6,4.6,96,0.03,RA,,0.76,WeatherDisplay:10.37,2013-06-19 17:46:00,
2013-06-19 10:51:00,49.0,47.9,29.76,NNW,336,3.5,3.5,96,0.03,OVC,,0.76,WeatherDisplay:10.37,2013-06-19 17:51:00,
2013-06-19 10:56:00,49.2,48.1,29.76,NNW,336,2.0,0.0,96,0.02,OVC,,0.77,WeatherDisplay:10.37,2013-06-19 17:56:00,
2013-06-19 11:01:00,49.1,48.0,29.76,NNW,329,4.6,4.6,96,0.03,-RA,,0.77,WeatherDisplay:10.37,2013-06-19 18:01:00,
2013-06-19 11:06:00,49.1,48.0,29.77,NNW,329,0.0,0.2,96,0.03,-RA,,0.77,WeatherDisplay:10.37,2013-06-19 18:06:00,
2013-06-19 11:11:00,49.0,47.9,29.76,NW,314,4.0,4.0,96,0.03,-RA,,0.77,WeatherDisplay:10.37,2013-06-19 18:11:00,
2013-06-19 11:16:00,48.7,47.3,29.76,NW,322,5.8,5.8,95,0.03,-RA,,0.77,WeatherDisplay:10.37,2013-06-19 18:16:00,
2013-06-19 11:21:00,48.5,47.4,29.74,NNW,336,6.9,6.9,96,0.02,-RA,,0.77,WeatherDisplay:10.37,2013-06-19 18:21:00,
2013-06-19 11:26:00,49.2,48.1,29.74,NNW,342,11.5,11.5,96,0.03,-RA,,0.78,WeatherDisplay:10.37,2013-06-19 18:26:00,
2013-06-19 11:31:00,49.5,48.4,29.75,North,360,11.5,11.5,96,0.03,-RA,,0.78,WeatherDisplay:10.37,2013-06-19 18:31:00,
2013-06-19 11:36:00,49.6,48.5,29.75,North,9,3.0,3.0,96,0.03,-RA,,0.78,WeatherDisplay:10.37,2013-06-19 18:36:00,
2013-06-19 11:41:00,49.4,48.3,29.76,WNW,300,3.5,3.5,96,0.02,-RA,,0.78,WeatherDisplay:10.37,2013-06-19 18:41:00,
2013-06-19 11:46:00,49.1,48.0,29.76,NNW,333,4.6,4.6,96,0.02,-RA,,0.78,WeatherDisplay:10.37,2013-06-19 18:46:00,
2013-06-19 11:51:00,48.9,47.5,29.76,NW,326,3.5,3.5,95,0.02,-RA,,0.78,WeatherDisplay:10.37,2013-06-19 18:51:00,
2013-06-19 11:56:00,48.8,47.4,29.76,NW,315,11.5,11.5,95,0.02,-RA,,0.78,WeatherDisplay:10.37,2013-06-19 18:56:00,
2013-06-19 12:01:00,48.9,47.5,29.76,NNW,339,3.5,3.5,95,0.01,-RA,,0.78,WeatherDisplay:10.37,2013-06-19 19:01:00,
2013-06-19 12:06:00,48.9,47.5,29.76,NW,318,6.9,6.9,95,0.01,-RA,,0.78,WeatherDisplay:10.37,2013-06-19 19:06:00,
2013-06-19 12:11:00,48.9,47.5,29.77,NW,324,5.0,5.0,95,0.01,-RA,,0.78,WeatherDisplay:10.37,2013-06-19 19:11:00,
2013-06-19 12:16:00,48.9,47.5,29.77,NNW,336,4.0,4.0,95,0.01,-RA,,0.78,WeatherDisplay:10.37,2013-06-19 19:16:00,
2013-06-19 12:22:00,49.1,48.0,29.77,WNW,288,8.1,8.1,96,0.01,-RA,,0.78,WeatherDisplay:10.37,2013-06-19 19:22:00,
2013-06-19 12:27:00,49.1,48.0,29.77,WNW,293,10.4,10.4,96,0.00,-RA,,0.79,WeatherDisplay:10.37,2013-06-19 19:27:00,
2013-06-19 12:32:00,49.2,48.1,29.77,North,349,3.5,3.5,96,0.01,-RA,,0.79,WeatherDisplay:10.37,2013-06-19 19:32:00,
2013-06-19 12:37:00,49.3,48.2,29.77,NNW,344,3.5,0.0,96,0.01,-RA,,0.80,WeatherDisplay:10.37,2013-06-19 19:37:00,
2013-06-19 12:42:00,49.2,47.8,29.77,NNE,24,4.6,4.6,95,0.02,-RA,,0.80,WeatherDisplay:10.37,2013-06-19 19:42:00,
2013-06-19 12:47:00,49.3,47.9,29.77,NW,326,4.6,4.6,95,0.03,-RA,,0.81,WeatherDisplay:10.37,2013-06-19 19:47:00,
2013-06-19 12:52:00,49.4,48.0,29.77,NW,309,5.8,5.8,95,0.04,-RA,,0.82,WeatherDisplay:10.37,2013-06-19 19:52:00,
2013-06-19 12:57:00,49.7,48.6,29.77,NW,317,6.9,6.9,96,0.04,-RA,,0.82,WeatherDisplay:10.37,2013-06-19 19:57:00,
2013-06-19 13:02:00,49.7,48.3,29.77,WNW,299,10.4,10.4,95,0.05,RA,,0.83,WeatherDisplay:10.37,2013-06-19 20:02:00,
2013-06-19 13:07:00,49.4,48.0,29.78,NW,322,5.0,5.0,95,0.05,RA,,0.83,WeatherDisplay:10.37,2013-06-19 20:07:00,
2013-06-19 13:12:00,49.2,47.8,29.78,NW,309,3.5,3.5,95,0.05,OVC,,0.83,WeatherDisplay:10.37,2013-06-19 20:12:00,
2013-06-19 13:17:00,48.9,47.5,29.78,WNW,294,3.5,3.5,95,0.05,OVC,,0.83,WeatherDisplay:10.37,2013-06-19 20:17:00,
2013-06-19 13:22:00,48.7,47.3,29.79,WNW,299,2.3,2.3,95,0.06,RA,,0.84,WeatherDisplay:10.37,2013-06-19 20:22:00,
2013-06-19 13:27:00,48.5,47.1,29.79,WNW,295,2.3,2.3,95,0.05,RA,,0.84,WeatherDisplay:10.37,2013-06-19 20:27:00,
2013-06-19 13:32:00,48.4,47.0,29.80,NW,313,3.5,3.5,95,0.06,RA,,0.85,WeatherDisplay:10.37,2013-06-19 20:32:00,
2013-06-19 13:37:00,48.3,46.9,29.80,NW,313,2.3,2.3,95,0.05,RA,,0.85,WeatherDisplay:10.37,2013-06-19 20:37:00,
2013-06-19 13:42:00,48.1,46.7,29.81,NNW,334,2.3,2.3,95,0.06,RA,,0.86,WeatherDisplay:10.37,2013-06-19 20:42:00,
2013-06-19 13:47:00,48.1,46.7,29.81,NNW,334,2.3,2.3,95,0.05,RA,,0.86,WeatherDisplay:10.37,2013-06-19 20:47:00,
2013-06-19 13:52:00,48.0,46.6,29.81,NNW,334,3.5,3.5,95,0.05,RA,,0.87,WeatherDisplay:10.37,2013-06-19 20:52:00,
2013-06-19 13:57:00,47.8,46.4,29.81,West,276,2.3,2.3,95,0.06,RA,,0.88,WeatherDisplay:10.37,2013-06-19 20:57:00,
2013-06-19 14:02:00,47.8,46.4,29.81,NW,319,3.5,3.5,95,0.06,RA,,0.89,WeatherDisplay:10.37,2013-06-19 21:02:00,
2013-06-19 14:07:00,47.7,46.3,29.81,NW,316,3.5,3.5,95,0.07,RA,,0.90,WeatherDisplay:10.37,2013-06-19 21:07:00,
2013-06-19 14:12:00,47.8,46.4,29.82,WNW,292,3.0,3.0,95,0.08,RA,,0.91,WeatherDisplay:10.37,2013-06-19 21:12:00,
2013-06-19 14:17:00,48.0,46.6,29.81,West,281,6.9,6.9,95,0.08,RA,,0.92,WeatherDisplay:10.37,2013-06-19 21:17:00,
2013-06-19 14:22:00,47.8,46.4,29.81,West,279,6.9,6.9,95,0.09,RA,,0.93,WeatherDisplay:10.37,2013-06-19 21:22:00,
2013-06-19 14:27:00,47.8,46.4,29.82,West,279,3.5,3.5,95,0.09,RA,,0.94,WeatherDisplay:10.37,2013-06-19 21:27:00,
2013-06-19 14:32:00,47.7,46.3,29.81,WNW,291,6.9,6.9,95,0.10,RA,,0.95,WeatherDisplay:10.37,2013-06-19 21:32:00,
2013-06-19 14:37:00,47.7,46.3,29.82,WNW,286,10.4,10.4,95,0.10,RA,,0.95,WeatherDisplay:10.37,2013-06-19 21:37:00,
2013-06-19 14:42:00,47.4,46.0,29.83,WNW,290,9.2,9.2,95,0.11,RA,,0.97,WeatherDisplay:10.37,2013-06-19 21:42:00,
2013-06-19 14:47:00,47.3,45.9,29.83,WNW,297,9.0,9.0,95,0.11,RA,,0.97,WeatherDisplay:10.37,2013-06-19 21:47:00,
2013-06-19 14:52:00,47.1,45.7,29.83,WNW,287,12.7,12.7,95,0.11,RA,,0.98,WeatherDisplay:10.37,2013-06-19 21:52:00,
2013-06-19 14:57:00,46.6,45.2,29.83,WNW,290,5.8,5.8,95,0.11,RA,,0.99,WeatherDisplay:10.37,2013-06-19 21:57:00,
2013-06-19 15:02:00,46.5,45.1,29.84,West,281,3.5,3.5,95,0.10,RA,,0.99,WeatherDisplay:10.37,2013-06-19 22:02:00,
2013-06-19 15:07:00,46.2,44.8,29.84,WNW,291,15.0,15.0,95,0.10,RA,,1.00,WeatherDisplay:10.37,2013-06-19 22:07:00,
2013-06-19 15:12:00,46.1,44.7,29.84,WNW,286,13.8,13.8,95,0.10,RA,,1.01,WeatherDisplay:10.37,2013-06-19 22:12:00,
2013-06-19 15:17:00,46.1,44.7,29.84,West,269,18.0,18.0,95,0.10,RA,,1.01,WeatherDisplay:10.37,2013-06-19 22:17:00,
2013-06-19 15:22:00,45.9,44.5,29.84,WNW,282,11.5,11.5,95,0.08,OVC,,1.01,WeatherDisplay:10.37,2013-06-19 22:22:00,
2013-06-19 15:27:00,45.9,44.5,29.85,West,277,11.5,11.5,95,0.08,OVC,,1.01,WeatherDisplay:10.37,2013-06-19 22:27:00,
2013-06-19 15:32:00,46.0,44.6,29.85,West,279,11.5,11.5,95,0.07,RA,,1.02,WeatherDisplay:10.37,2013-06-19 22:32:00,
2013-06-19 15:37:00,46.1,44.7,29.85,West,280,16.1,16.1,95,0.07,RA,,1.02,WeatherDisplay:10.37,2013-06-19 22:37:00,
2013-06-19 15:42:00,46.3,44.9,29.85,WNW,291,11.5,11.5,95,0.06,RA,,1.03,WeatherDisplay:10.37,2013-06-19 22:42:00,
2013-06-19 15:47:00,46.3,44.9,29.85,WNW,290,17.3,17.3,95,0.06,RA,,1.03,WeatherDisplay:10.37,2013-06-19 22:47:00,
2013-06-19 15:52:00,46.2,44.8,29.86,WNW,284,11.5,11.5,95,0.05,OVC,,1.03,WeatherDisplay:10.37,2013-06-19 22:52:00,
2013-06-19 15:57:00,46.3,44.9,29.85,West,279,5.8,5.8,95,0.04,OVC,,1.03,WeatherDisplay:10.37,2013-06-19 22:57:00,
2013-06-19 16:02:00,46.4,45.0,29.86,WNW,290,11.5,11.5,95,0.05,-RA,,1.04,WeatherDisplay:10.37,2013-06-19 23:02:00,
2013-06-19 16:07:00,46.3,44.9,29.86,WNW,286,12.7,12.7,95,0.04,-RA,,1.04,WeatherDisplay:10.37,2013-06-19 23:07:00,
2013-06-19 16:12:00,46.3,44.9,29.86,WNW,286,12.7,12.7,95,0.03,-RA,,1.04,WeatherDisplay:10.37,2013-06-19 23:12:00,
2013-06-19 16:17:00,46.3,44.9,29.87,West,277,11.5,11.5,95,0.03,-RA,,1.04,WeatherDisplay:10.37,2013-06-19 23:17:00,
2013-06-19 16:22:00,46.4,45.0,29.87,West,277,10.4,10.4,95,0.03,-RA,,1.04,WeatherDisplay:10.37,2013-06-19 23:22:00,
2013-06-19 16:28:00,46.3,44.9,29.87,NW,304,9.2,9.2,95,0.03,-RA,,1.04,WeatherDisplay:10.37,2013-06-19 23:28:00,
2013-06-19 16:33:00,46.3,44.9,29.87,WNW,299,3.5,3.5,95,0.02,-RA,,1.04,WeatherDisplay:10.37,2013-06-19 23:33:00,
2013-06-19 16:38:00,46.3,44.9,29.87,WNW,296,9.2,9.2,95,0.03,-RA,,1.05,WeatherDisplay:10.37,2013-06-19 23:38:00,
2013-06-19 16:43:00,46.4,45.0,29.87,West,280,10.4,10.4,95,0.02,-RA,,1.05,WeatherDisplay:10.37,2013-06-19 23:43:00,
2013-06-19 16:48:00,46.2,44.8,29.88,West,273,13.8,13.8,95,0.02,-RA,,1.05,WeatherDisplay:10.37,2013-06-19 23:48:00,
2013-06-19 16:53:00,46.2,44.8,29.88,West,259,13.0,13.0,95,0.02,-RA,,1.05,WeatherDisplay:10.37,2013-06-19 23:53:00,
2013-06-19 16:58:00,46.3,44.9,29.88,West,270,11.5,11.5,95,0.02,-RA,,1.05,WeatherDisplay:10.37,2013-06-19 23:58:00,
2013-06-19 17:03:00,46.3,44.7,29.88,West,272,12.7,12.7,94,0.01,-RA,,1.05,WeatherDisplay:10.37,2013-06-20 00:03:00,
2013-06-19 17:08:00,46.4,44.8,29.88,West,273,12.0,12.0,94,0.01,-RA,,1.05,WeatherDisplay:10.37,2013-06-20 00:08:00,
2013-06-19 17:13:00,46.3,44.7,29.88,West,272,15.0,15.0,94,0.01,-RA,,1.05,WeatherDisplay:10.37,2013-06-20 00:13:00,
2013-06-19 17:18:00,46.2,44.3,29.89,West,277,13.8,13.8,93,0.01,-RA,,1.05,WeatherDisplay:10.37,2013-06-20 00:18:00,
2013-06-19 17:23:00,46.1,44.2,29.89,West,273,11.5,11.5,93,0.01,-RA,,1.05,WeatherDisplay:10.37,2013-06-20 00:23:00,
2013-06-19 17:28:00,46.0,44.1,29.89,WNW,284,13.8,13.8,93,0.01,-RA,,1.05,WeatherDisplay:10.37,2013-06-20 00:28:00,
2013-06-19 17:33:00,46.1,44.2,29.88,West,281,12.7,12.7,93,0.01,-RA,,1.05,WeatherDisplay:10.37,2013-06-20 00:33:00,
2013-06-19 17:38:00,46.0,43.8,29.89,West,269,17.3,17.3,92,0.00,-RA,,1.05,WeatherDisplay:10.37,2013-06-20 00:38:00,
2013-06-19 17:43:00,45.9,43.7,29.89,West,271,13.8,13.8,92,0.00,-RA,,1.05,WeatherDisplay:10.37,2013-06-20 00:43:00,
2013-06-19 17:48:00,45.8,43.6,29.89,West,279,12.7,12.7,92,0.00,-RA,,1.05,WeatherDisplay:10.37,2013-06-20 00:48:00,
2013-06-19 17:53:00,45.7,43.5,29.89,West,272,13.8,13.8,92,0.00,-RA,,1.05,WeatherDisplay:10.37,2013-06-20 00:53:00,
2013-06-19 17:58:00,45.8,43.6,29.89,West,260,13.0,13.0,92,0.00,-RA,,1.05,WeatherDisplay:10.37,2013-06-20 00:58:00,
2013-06-19 18:03:00,45.8,43.3,29.89,West,270,16.1,16.1,91,0.00,-RA,,1.05,WeatherDisplay:10.37,2013-06-20 01:03:00,
2013-06-19 18:08:00,45.7,43.2,29.89,West,267,17.3,17.3,91,0.00,-RA,,1.05,WeatherDisplay:10.37,2013-06-20 01:08:00,
2013-06-19 18:13:00,45.7,43.2,29.89,West,270,16.1,16.1,91,0.00,-RA,,1.05,WeatherDisplay:10.37,2013-06-20 01:13:00,
2013-06-19 18:18:00,45.6,43.1,29.89,West,273,11.5,11.5,91,0.00,-RA,,1.05,WeatherDisplay:10.37,2013-06-20 01:18:00,
2013-06-19 18:23:00,45.6,43.4,29.89,WSW,254,11.5,11.5,92,0.00,-RA,,1.05,WeatherDisplay:10.37,2013-06-20 01:23:00,
2013-06-19 18:28:00,45.5,43.0,29.89,West,259,17.3,17.3,91,0.00,-RA,,1.05,WeatherDisplay:10.37,2013-06-20 01:28:00,
2013-06-19 18:33:00,45.4,43.2,29.89,WSW,252,16.1,16.1,92,0.00,-RA,,1.05,WeatherDisplay:10.37,2013-06-20 01:33:00,
2013-06-19 18:38:00,45.3,43.1,29.89,WSW,246,15.0,15.0,92,0.00,-RA,,1.05,WeatherDisplay:10.37,2013-06-20 01:38:00,
2013-06-19 18:43:00,45.0,42.8,29.89,WSW,238,13.0,13.0,92,0.00,-RA,,1.05,WeatherDisplay:10.37,2013-06-20 01:43:00,
2013-06-19 18:48:00,45.0,42.8,29.89,WSW,253,12.7,12.7,92,0.00,-RA,,1.05,WeatherDisplay:10.37,2013-06-20 01:48:00,
2013-06-19 18:53:00,45.0,42.8,29.90,WSW,257,13.8,13.8,92,0.00,-RA,,1.05,WeatherDisplay:10.37,2013-06-20 01:53:00,
2013-06-19 18:58:00,44.9,42.7,29.90,WSW,252,11.5,11.5,92,0.00,-RA,,1.05,WeatherDisplay:10.37,2013-06-20 01:58:00,
2013-06-19 19:03:00,44.8,42.6,29.91,WSW,244,12.7,12.7,92,0.00,-RA,,1.05,WeatherDisplay:10.37,2013-06-20 02:03:00,
2013-06-19 19:08:00,44.7,42.5,29.91,WSW,245,11.5,11.5,92,0.00,-RA,,1.05,WeatherDisplay:10.37,2013-06-20 02:08:00,
2013-06-19 19:13:00,44.7,42.5,29.91,WSW,245,11.5,11.5,92,0.00,-RA,,1.05,WeatherDisplay:10.37,2013-06-20 02:13:00,
2013-06-19 19:18:00,44.7,42.2,29.91,WSW,244,13.8,13.8,91,0.00,-RA,,1.05,WeatherDisplay:10.37,2013-06-20 02:18:00,
2013-06-19 19:23:00,44.6,42.1,29.91,WSW,239,15.0,15.0,91,0.00,-RA,,1.05,WeatherDisplay:10.37,2013-06-20 02:23:00,
2013-06-19 19:28:00,44.6,42.1,29.90,WSW,246,13.8,13.8,91,0.00,-RA,,1.05,WeatherDisplay:10.37,2013-06-20 02:28:00,
2013-06-19 19:33:00,44.4,41.7,29.91,WSW,255,17.3,17.3,90,0.00,-RA,,1.05,WeatherDisplay:10.37,2013-06-20 02:33:00,
2013-06-19 19:38:00,44.2,41.5,29.91,SW,235,15.0,15.0,90,0.00,-RA,,1.05,WeatherDisplay:10.37,2013-06-20 02:38:00,
2013-06-19 19:43:00,44.1,41.6,29.91,WSW,239,15.0,15.0,91,0.00,-RA,,1.05,WeatherDisplay:10.37,2013-06-20 02:43:00,
2013-06-19 19:48:00,44.0,41.5,29.92,WSW,242,13.8,13.8,91,0.00,-RA,,1.05,WeatherDisplay:10.37,2013-06-20 02:48:00,
2013-06-19 19:53:00,44.0,41.5,29.92,WSW,243,14.0,14.0,91,0.00,-RA,,1.05,WeatherDisplay:10.37,2013-06-20 02:53:00,
2013-06-19 19:58:00,43.9,41.4,29.92,WSW,252,13.0,13.0,91,0.00,-RA,,1.05,WeatherDisplay:10.37,2013-06-20 02:58:00,
2013-06-19 20:03:00,43.8,41.3,29.92,SW,232,16.0,16.0,91,0.00,-RA,,1.05,WeatherDisplay:10.37,2013-06-20 03:03:00,
2013-06-19 20:08:00,43.7,41.2,29.92,WSW,242,17.3,17.3,91,0.00,-RA,,1.05,WeatherDisplay:10.37,2013-06-20 03:08:00,
2013-06-19 20:13:00,43.7,41.2,29.92,WSW,257,14.0,14.0,91,0.00,-RA,,1.05,WeatherDisplay:10.37,2013-06-20 03:13:00,
2013-06-19 20:18:00,43.5,41.0,29.92,WSW,251,15.0,15.0,91,0.00,-RA,,1.05,WeatherDisplay:10.37,2013-06-20 03:18:00,
2013-06-19 20:23:00,43.5,41.0,29.92,WSW,238,18.0,18.0,91,0.00,-RA,,1.05,WeatherDisplay:10.37,2013-06-20 03:23:00,
2013-06-19 20:29:00,43.4,40.9,29.92,WSW,242,17.3,17.3,91,0.00,-RA,,1.05,WeatherDisplay:10.37,2013-06-20 03:29:00,
2013-06-19 20:34:00,43.4,40.9,29.92,West,259,19.6,19.6,91,0.00,-RA,,1.05,WeatherDisplay:10.37,2013-06-20 03:34:00,
2013-06-19 20:39:00,43.5,40.8,29.92,SW,234,16.1,16.1,90,0.00,-RA,,1.05,WeatherDisplay:10.37,2013-06-20 03:39:00,
2013-06-19 20:44:00,43.3,40.6,29.92,WSW,242,13.0,13.0,90,0.01,-RA,,1.06,WeatherDisplay:10.37,2013-06-20 03:44:00,
2013-06-19 20:49:00,43.3,40.8,29.92,WSW,242,16.1,16.1,91,0.01,-RA,,1.06,WeatherDisplay:10.37,2013-06-20 03:49:00,
2013-06-19 20:54:00,43.4,40.7,29.92,West,259,19.6,19.6,90,0.01,-RA,,1.06,WeatherDisplay:10.37,2013-06-20 03:54:00,
2013-06-19 20:59:00,43.3,40.6,29.91,West,263,16.1,16.1,90,0.01,-RA,,1.06,WeatherDisplay:10.37,2013-06-20 03:59:00,
2013-06-19 21:01:00,43.2,40.5,29.91,WSW,246,18.4,18.4,90,0.01,-RA,,1.07,WeatherDisplay:10.37,2013-06-20 04:01:00,
2013-06-19 21:06:00,43.1,40.4,29.91,WSW,244,18.4,18.4,90,0.02,-RA,,1.07,WeatherDisplay:10.37,2013-06-20 04:06:00,
2013-06-19 21:11:00,43.0,40.6,29.91,SW,235,18.0,18.0,91,0.02,-RA,,1.07,WeatherDisplay:10.37,2013-06-20 04:11:00,
2013-06-19 21:16:00,43.1,40.4,29.91,WSW,237,15.0,15.0,90,0.03,-RA,,1.08,WeatherDisplay:10.37,2013-06-20 04:16:00,
2013-06-19 21:21:00,43.2,40.5,29.91,WSW,243,18.0,18.0,90,0.04,-RA,,1.09,WeatherDisplay:10.37,2013-06-20 04:21:00,
2013-06-19 21:26:00,43.3,40.6,29.91,WSW,252,14.0,14.0,90,0.04,-RA,,1.09,WeatherDisplay:10.37,2013-06-20 04:26:00,
2013-06-19 21:31:00,43.3,40.6,29.92,WSW,254,12.7,12.7,90,0.04,-RA,,1.09,WeatherDisplay:10.37,2013-06-20 04:31:00,
2013-06-19 21:36:00,43.4,40.4,29.91,SW,227,17.3,17.3,89,0.05,-RA,,1.10,WeatherDisplay:10.37,2013-06-20 04:36:00,
2013-06-19 21:41:00,43.3,40.6,29.91,SW,236,13.8,13.8,90,0.05,-RA,,1.10,WeatherDisplay:10.37,2013-06-20 04:41:00,
2013-06-19 21:46:00,43.3,40.6,29.91,WSW,238,15.0,15.0,90,0.05,-RA,,1.11,WeatherDisplay:10.37,2013-06-20 04:46:00,
2013-06-19 21:51:00,43.3,40.6,29.90,WSW,238,15.0,15.0,90,0.05,-RA,,1.11,WeatherDisplay:10.37,2013-06-20 04:51:00,
2013-06-19 21:56:00,43.3,40.6,29.90,WSW,240,16.1,16.1,90,0.05,-RA,,1.11,WeatherDisplay:10.37,2013-06-20 04:56:00,
2013-06-19 22:01:00,43.3,40.6,29.89,WSW,249,15.0,15.0,90,0.04,-RA,,1.11,WeatherDisplay:10.37,2013-06-20 05:01:00,
2013-06-19 22:06:00,43.4,40.7,29.90,WSW,245,11.5,11.5,90,0.05,-RA,,1.12,WeatherDisplay:10.37,2013-06-20 05:06:00,
2013-06-19 22:11:00,43.4,40.7,29.90,WSW,248,11.5,11.5,90,0.05,-RA,,1.12,WeatherDisplay:10.37,2013-06-20 05:11:00,
2013-06-19 22:16:00,43.3,40.8,29.90,WSW,245,12.7,12.7,91,0.04,-RA,,1.12,WeatherDisplay:10.37,2013-06-20 05:16:00,
2013-06-19 22:21:00,43.3,40.8,29.90,WSW,248,9.2,9.2,91,0.03,-RA,,1.12,WeatherDisplay:10.37,2013-06-20 05:21:00,
2013-06-19 22:26:00,43.2,40.8,29.90,WSW,238,11.0,11.0,91,0.04,-RA,,1.13,WeatherDisplay:10.37,2013-06-20 05:26:00,
2013-06-19 22:31:00,43.3,41.1,29.90,WSW,240,9.2,9.2,92,0.04,-RA,,1.13,WeatherDisplay:10.37,2013-06-20 05:31:00,
2013-06-19 22:36:00,43.3,41.1,29.90,SW,232,5.8,5.8,92,0.04,-RA,,1.14,WeatherDisplay:10.37,2013-06-20 05:36:00,
2013-06-19 22:41:00,43.3,41.1,29.89,WSW,244,4.6,4.6,92,0.04,-RA,,1.14,WeatherDisplay:10.37,2013-06-20 05:41:00,
2013-06-19 22:46:00,43.3,41.1,29.90,WSW,244,5.8,5.8,92,0.04,-RA,,1.15,WeatherDisplay:10.37,2013-06-20 05:46:00,
2013-06-19 22:51:00,43.4,41.5,29.90,WSW,252,9.2,9.2,93,0.04,-RA,,1.15,WeatherDisplay:10.37,2013-06-20 05:51:00,
2013-06-19 22:56:00,43.6,41.7,29.90,WSW,246,6.9,6.9,93,0.05,-RA,,1.16,WeatherDisplay:10.37,2013-06-20 05:56:00,
2013-06-19 23:02:00,43.7,41.5,29.90,WSW,239,7.0,7.0,92,0.05,-RA,,1.16,WeatherDisplay:10.37,2013-06-20 06:02:00,
2013-06-19 23:07:00,43.7,41.8,29.90,WSW,238,6.9,6.9,93,0.05,-RA,,1.17,WeatherDisplay:10.37,2013-06-20 06:07:00,
2013-06-19 23:12:00,43.8,41.9,29.91,WSW,238,9.2,9.2,93,0.05,-RA,,1.17,WeatherDisplay:10.37,2013-06-20 06:12:00,
2013-06-19 23:17:00,43.8,41.9,29.91,WSW,242,6.9,6.9,93,0.06,-RA,,1.18,WeatherDisplay:10.37,2013-06-20 06:17:00,
2013-06-19 23:22:00,43.8,41.9,29.91,SW,229,6.0,6.0,93,0.07,-RA,,1.19,WeatherDisplay:10.37,2013-06-20 06:22:00,
2013-06-19 23:27:00,43.8,41.9,29.91,SW,223,7.0,7.0,93,0.06,-RA,,1.19,WeatherDisplay:10.37,2013-06-20 06:27:00,
2013-06-19 23:32:00,43.9,41.7,29.91,WSW,237,11.5,11.5,92,0.07,-RA,,1.20,WeatherDisplay:10.37,2013-06-20 06:32:00,
2013-06-19 23:37:00,44.1,41.6,29.91,WSW,244,13.8,13.8,91,0.07,-RA,,1.21,WeatherDisplay:10.37,2013-06-20 06:37:00,
2013-06-19 23:42:00,44.3,41.6,29.91,WSW,242,11.5,11.5,90,0.07,-RA,,1.21,WeatherDisplay:10.37,2013-06-20 06:42:00,
2013-06-19 23:47:00,44.3,41.6,29.91,WSW,246,11.5,11.5,90,0.07,-RA,,1.22,WeatherDisplay:10.37,2013-06-20 06:47:00,
2013-06-19 23:52:00,44.3,41.6,29.91,SW,230,10.4,10.4,90,0.07,-RA,,1.22,WeatherDisplay:10.37,2013-06-20 06:52:00,
2013-06-19 23:57:00,44.3,41.6,29.90,SW,221,11.5,11.5,90,0.06,-RA,,1.23,WeatherDisplay:10.37,2013-06-20 06:57:00,